Location: *
(34.8620°S, 39.3380°E)
Time: 22:46:29
(UTC+00:00)

Meteor 2-11 Rocket - Pass Details

Date: 27 July 2021
Orbit: 940 x 956 km, 82.5° (Epoch: 20 September)

Event Time Altitude Azimuth Distance (km) Brightness Sun altitude
Rises 02:38:59 0° 191° (S) 3,666 7.3 -20.9°
Reaches altitude 10° 02:41:31 10° 193° (SSW) 2,713 6.6 -20.4°
Maximum altitude 02:47:40 67° 273° (W) 1,037 4.4 -19.1°
Drops below altitude 10° 02:53:44 10° 355° (N) 2,672 6.9 -17.9°
Sets 02:56:13 0° 357° (N) 3,607 7.6 -17.4°
